Simultaneous Nadir Overpasses (SNOs) Predictions

Prediction of SNOs between AQUA and METOP-A Satellite Orbit:

Table of predicted SNOs for the next 14.0 days since TLE Epoch: 7/3/2021
Index Date (AQUA) Time (AQUA) Lat,Lon (AQUA) SZA (AQUA ) Date (METOP-A) Time (METOP-A) Lat,Lon (METOP-A) SZA (METOP-A ) Distance(km) Time Diff (sec)
1 07/03/2021 12:38:47 77.37, -25.68 55.02 07/03/2021 12:37:36 77.30, -26.92 55.06 31.44 71
2 07/03/2021 13:28:16 -77.52, 141.37 124.80 07/03/2021 13:28:12 -77.53, 141.40 124.79 1.48 4
3 07/03/2021 14:17:44 77.55, -51.13 55.24 07/03/2021 14:18:52 77.54, -51.23 55.22 2.71 68
4 07/06/2021 08:13:06 77.48, 40.31 55.42 07/06/2021 08:11:53 77.49, 40.23 55.46 2.13 73
5 07/06/2021 09:02:33 -77.54,-152.26 124.51 07/06/2021 09:02:33 -77.55,-152.18 124.50 2.74 0
6 07/06/2021 09:52:01 77.57, 15.24 55.54 07/06/2021 09:53:13 77.56, 15.19 55.51 1.59 72
7 07/09/2021 03:47:23 77.50, 106.65 55.77 07/09/2021 03:46:14 77.51, 106.64 55.80 0.35 69
8 07/09/2021 04:36:50 -77.56, -85.92 124.16 07/09/2021 04:36:55 -77.53, -85.95 124.19 3.52 5
9 07/09/2021 05:26:20 77.68, 81.19 56.00 07/09/2021 05:27:31 77.70, 82.17 55.93 23.41 71
10 07/11/2021 23:21:40 77.53, 172.97 56.18 07/11/2021 23:20:35 77.52, 173.04 56.18 2.22 65
11 07/12/2021 00:11:05 -77.54, -19.41 123.81 07/12/2021 00:11:15 -77.54, -19.54 123.80 3.22 10
12 07/12/2021 01:00:40 77.89, 146.72 56.64 07/12/2021 01:01:47 77.89, 149.37 56.42 61.77 67
13 07/14/2021 18:55:55 77.52,-120.55 56.59 07/14/2021 18:54:55 77.53,-120.57 56.62 1.24 60
14 07/14/2021 19:45:22 -77.57, 46.89 123.35 07/14/2021 19:45:36 -77.55, 46.86 123.37 1.89 14



Historial Predications of SNOs between AQUA and METOP-A
